When you browse on this site, cookies collect data to enhance your experience and personalize the content and advertising you see.
Visit our Privacy Policy to learn more. By continuing to use the site, you agree to this use of cookies and data.
  • en Suisse
  • Liste des pays
  • À 7 jours
  • Température de l'eau
  • Carte météo
  • Widgets météo
  • user-avatar
    Se connecter

    Météo par heure à Lugo

    Ce jour, 18 Septembre, Mercredi

    Heure Température Précipitation Vent Pression Humidité
    00:00 +15°C° 0 mm 0 m/s 722 mmHg 96%
    01:00 +15°C° 0 mm 0 m/s 721 mmHg 96%
    02:00 +15°C° 0 mm 0 m/s 721 mmHg 95%
    03:00 +14°C° 0 mm 0 m/s 721 mmHg 95%
    04:00 +14°C° 0 mm 0 m/s 722 mmHg 95%
    05:00 +15°C° 0 mm 1 m/s 722 mmHg 94%
    06:00 +18°C° 0 mm 1 m/s 722 mmHg 87%
    07:00 +20°C° 0 mm 1 m/s 722 mmHg 81%
    08:00 +22°C° 0 mm 1 m/s 723 mmHg 74%
    09:00 +24°C° 0 mm 1 m/s 723 mmHg 63%
    10:00 +27°C° 0 mm 1 m/s 724 mmHg 52%
    11:00 +29°C° 0 mm 1 m/s 724 mmHg 42%
    12:00 +29°C° 0 mm 1 m/s 724 mmHg 41%
    13:00 +29°C° 0 mm 1 m/s 724 mmHg 41%
    14:00 +29°C° 0 mm 2 m/s 723 mmHg 40%
    15:00 +27°C° 0 mm 2 m/s 723 mmHg 50%
    16:00 +25°C° 0 mm 2 m/s 723 mmHg 60%
    17:00 +23°C° 0 mm 2 m/s 723 mmHg 70%
    18:00 +21°C° 0.1 mm 2 m/s 723 mmHg 79%
    19:00 +20°C° 0.1 mm 1 m/s 723 mmHg 88%
    20:00 +18°C° 0.1 mm 1 m/s 724 mmHg 96%
    21:00 +18°C° 0 mm 1 m/s 723 mmHg 96%
    22:00 +18°C° 0 mm 1 m/s 723 mmHg 96%
    23:00 +18°C° 0 mm 1 m/s 723 mmHg 95%

    Demain, 19 Septembre, Jeudi

    Heure Température Précipitation Vent Pression Humidité
    00:00 +18°C° 0 mm 1 m/s 723 mmHg 95%
    01:00 +18°C° 0 mm 1 m/s 723 mmHg 95%
    02:00 +18°C° 0 mm 1 m/s 723 mmHg 95%
    03:00 +16°C° 0 mm 1 m/s 723 mmHg 95%
    04:00 +15°C° 0 mm 0 m/s 723 mmHg 95%
    05:00 +15°C° 0 mm 0 m/s 723 mmHg 96%
    06:00 +17°C° 0 mm 0 m/s 723 mmHg 88%
    07:00 +18°C° 0 mm 0 m/s 723 mmHg 80%
    08:00 +22°C° 0 mm 1 m/s 724 mmHg 72%
    09:00 +25°C° 0 mm 1 m/s 724 mmHg 62%
    10:00 +27°C° 0 mm 1 m/s 724 mmHg 52%
    11:00 +30°C° 0 mm 1 m/s 724 mmHg 42%
    12:00 +30°C° 0 mm 1 m/s 723 mmHg 42%
    13:00 +29°C° 0 mm 1 m/s 723 mmHg 42%
    14:00 +29°C° 0 mm 2 m/s 723 mmHg 42%
    15:00 +26°C° 1 mm 2 m/s 722 mmHg 56%
    16:00 +23°C° 1 mm 1 m/s 722 mmHg 70%
    17:00 +20°C° 1 mm 1 m/s 721 mmHg 85%
    18:00 +20°C° 1.2 mm 1 m/s 722 mmHg 88%
    19:00 +19°C° 1.2 mm 1 m/s 722 mmHg 91%
    20:00 +18°C° 1.2 mm 1 m/s 722 mmHg 95%
    21:00 +15°C° 0 mm 0 m/s 722 mmHg 95%
    22:00 +15°C° 0 mm 0 m/s 721 mmHg 96%
    23:00 +15°C° 0 mm 0 m/s 721 mmHg 97%

    Après-demain, 20 Septembre, Vendredi

    Heure Température Précipitation Vent Pression Humidité
    00:00 +14°C° 0 mm 0 m/s 721 mmHg 96%
    01:00 +14°C° 0 mm 0 m/s 720 mmHg 96%
    02:00 +14°C° 0 mm 0 m/s 720 mmHg 96%
    03:00 +14°C° 0 mm 0 m/s 720 mmHg 96%
    04:00 +14°C° 0 mm 0 m/s 719 mmHg 96%
    05:00 +14°C° 0 mm 0 m/s 719 mmHg 97%
    06:00 +15°C° 0 mm 0 m/s 719 mmHg 91%
    07:00 +17°C° 0 mm 0 m/s 720 mmHg 85%
    08:00 +21°C° 0 mm 1 m/s 720 mmHg 79%
    09:00 +23°C° 0 mm 1 m/s 720 mmHg 67%
    10:00 +26°C° 0 mm 1 m/s 720 mmHg 55%
    11:00 +28°C° 0 mm 2 m/s 720 mmHg 42%
    12:00 +29°C° 0 mm 2 m/s 720 mmHg 40%
    13:00 +29°C° 0 mm 2 m/s 719 mmHg 38%
    14:00 +29°C° 0 mm 2 m/s 719 mmHg 36%
    15:00 +27°C° 0 mm 2 m/s 719 mmHg 46%
    16:00 +25°C° 0 mm 2 m/s 718 mmHg 56%
    17:00 +22°C° 0 mm 1 m/s 718 mmHg 67%
    18:00 +21°C° 0 mm 1 m/s 718 mmHg 74%
    19:00 +19°C° 0 mm 1 m/s 718 mmHg 82%
    20:00 +15°C° 0 mm 0 m/s 718 mmHg 89%
    21:00 +15°C° 0 mm 0 m/s 717 mmHg 89%
    22:00 +16°C° 0 mm 1 m/s 717 mmHg 88%
    23:00 +16°C° 0 mm 1 m/s 716 mmHg 87%

    21 Septembre, Samedi

    Heure Température Précipitation Vent Pression Humidité
    00:00 +16°C° 0 mm 1 m/s 716 mmHg 85%
    01:00 +16°C° 0 mm 1 m/s 715 mmHg 83%
    02:00 +16°C° 0 mm 1 m/s 715 mmHg 81%
    03:00 +16°C° 0 mm 1 m/s 715 mmHg 79%
    04:00 +16°C° 0 mm 2 m/s 714 mmHg 77%
    05:00 +17°C° 0 mm 2 m/s 714 mmHg 75%
    06:00 +17°C° 0.2 mm 2 m/s 714 mmHg 79%
    07:00 +17°C° 0.2 mm 3 m/s 714 mmHg 82%
    08:00 +17°C° 0.2 mm 3 m/s 714 mmHg 85%
    09:00 +17°C° 0.1 mm 3 m/s 714 mmHg 85%
    10:00 +17°C° 0.1 mm 3 m/s 714 mmHg 85%
    11:00 +17°C° 0.1 mm 3 m/s 714 mmHg 85%
    12:00 +17°C° 0.5 mm 3 m/s 714 mmHg 87%
    13:00 +17°C° 0.5 mm 3 m/s 714 mmHg 89%
    14:00 +17°C° 0.5 mm 2 m/s 714 mmHg 91%
    15:00 +16°C° 0.2 mm 3 m/s 714 mmHg 88%
    16:00 +14°C° 0.2 mm 3 m/s 715 mmHg 85%
    17:00 +14°C° 0.2 mm 3 m/s 715 mmHg 82%
    18:00 +14°C° 0 mm 2 m/s 716 mmHg 85%
    19:00 +14°C° 0 mm 2 m/s 717 mmHg 87%
    20:00 +13°C° 0 mm 2 m/s 717 mmHg 90%
    21:00 +13°C° 0.1 mm 2 m/s 717 mmHg 91%
    22:00 +12°C° 0.1 mm 2 m/s 718 mmHg 93%
    23:00 +12°C° 0.1 mm 2 m/s 718 mmHg 94%

    22 Septembre, Dimanche

    Heure Température Précipitation Vent Pression Humidité
    00:00 +12°C° 0 mm 2 m/s 718 mmHg 94%
    01:00 +10°C° 0 mm 2 m/s 718 mmHg 93%
    02:00 +10°C° 0 mm 2 m/s 718 mmHg 93%
    03:00 +10°C° 0 mm 2 m/s 719 mmHg 92%
    04:00 +10°C° 0 mm 2 m/s 719 mmHg 91%
    05:00 +10°C° 0 mm 2 m/s 719 mmHg 91%
    06:00 +12°C° 0.1 mm 2 m/s 720 mmHg 88%
    07:00 +13°C° 0.1 mm 2 m/s 720 mmHg 85%
    08:00 +13°C° 0.1 mm 3 m/s 721 mmHg 82%
    09:00 +14°C° 0.1 mm 3 m/s 721 mmHg 73%
    10:00 +17°C° 0.1 mm 3 m/s 722 mmHg 64%
    11:00 +18°C° 0.1 mm 3 m/s 722 mmHg 55%
    12:00 +18°C° 0.1 mm 3 m/s 722 mmHg 53%
    13:00 +19°C° 0.1 mm 4 m/s 722 mmHg 51%
    14:00 +19°C° 0.1 mm 4 m/s 722 mmHg 49%
    15:00 +18°C° 0 mm 3 m/s 723 mmHg 54%
    16:00 +17°C° 0 mm 2 m/s 723 mmHg 59%
    17:00 +16°C° 0 mm 2 m/s 723 mmHg 63%
    18:00 +14°C° 0 mm 2 m/s 723 mmHg 71%
    19:00 +13°C° 0 mm 1 m/s 723 mmHg 78%
    20:00 +11°C° 0 mm 1 m/s 724 mmHg 86%
    21:00 +11°C° 0 mm 1 m/s 724 mmHg 86%
    22:00 +12°C° 0 mm 1 m/s 724 mmHg 85%
    23:00 +12°C° 0 mm 2 m/s 724 mmHg 85%

    23 Septembre, Lundi

    Heure Température Précipitation Vent Pression Humidité
    00:00 +12°C° 0 mm 2 m/s 724 mmHg 83%
    01:00 +12°C° 0 mm 2 m/s 724 mmHg 81%
    02:00 +12°C° 0 mm 2 m/s 724 mmHg 79%
    03:00 +12°C° 0 mm 2 m/s 724 mmHg 78%
    04:00 +12°C° 0 mm 2 m/s 724 mmHg 78%
    05:00 +12°C° 0 mm 1 m/s 724 mmHg 77%
    06:00 +14°C° 0 mm 2 m/s 724 mmHg 70%
    07:00 +15°C° 0 mm 2 m/s 724 mmHg 63%
    08:00 +17°C° 0 mm 2 m/s 725 mmHg 56%
    09:00 +19°C° 0 mm 3 m/s 725 mmHg 51%
    10:00 +21°C° 0 mm 3 m/s 725 mmHg 46%
    11:00 +24°C° 0 mm 3 m/s 725 mmHg 42%
    12:00 +24°C° 0 mm 3 m/s 725 mmHg 42%
    13:00 +25°C° 0 mm 3 m/s 724 mmHg 42%
    14:00 +25°C° 0 mm 3 m/s 724 mmHg 42%
    15:00 +24°C° 0 mm 2 m/s 724 mmHg 47%
    16:00 +21°C° 0 mm 2 m/s 724 mmHg 53%
    17:00 +21°C° 0 mm 1 m/s 724 mmHg 58%
    18:00 +19°C° 0 mm 1 m/s 724 mmHg 65%
    19:00 +16°C° 0 mm 1 m/s 724 mmHg 72%
    20:00 +14°C° 0 mm 1 m/s 724 mmHg 79%
    21:00 +14°C° 0 mm 1 m/s 724 mmHg 80%
    22:00 +14°C° 0 mm 1 m/s 724 mmHg 81%
    23:00 +14°C° 0 mm 1 m/s 724 mmHg 82%
    Voir plus